Find Starlink 11665

NORAD ID: 63549 Int'l Des: 2025-075 Owner: SPXS Country: US Constellation: starlink operational
LEOCIRCULAR

Live Position

Loading 3D Globe...

About Starlink 11665

Description loading...

Upcoming Passes

Passes for default location (London). Set your location on the main map for personalized predictions.

Altitude History

Loading altitude history...

Two-Line Element Set

1 63549U 25075B 26123.46254522 .00193026 00000-0 14671-2 0 9992
2 63549 42.9978 183.5881 0002035 253.1441 106.9203 15.70936463 61868
Epoch: May 3, 2026 • Age: 7 hours

Current Status

Altitude 357.0 km
Velocity 7.70 km/s
Sub-Earth Point -10.90°S, 118.48°W
Launch Date Apr 13, 2025
Age 1 years
Type internet

Technical Details

Classification Payload
Mass 960.00 kg
Dry Mass 910.00 kg
Total Mass 960.00 kg
Length 0.30 m
Diameter 4.10 m
Span 29.00 m
Shape Box + pan
Manufacturer SPXS
Bus Type Starlink V2MD
Phase Status In Orbit
Owner/State SPXS/US

Most Searched